Home > Weather > Prešov > Past weeks

Flag for Slovakia Past Weather in Prešov, Slovakia — Yesterday and Last 2 Weeks

Now
68 °F

Passing clouds.


Feels Like: 68 °F
Forecast: 65 / 81 °F
Wind: 2 mph from Northwest

Location: Kosice - Barca

Current Time: Jul 28, 2016 at 6:48:38 AM

Latest Report: Jul 28, 2016 at 6:30 AM


Visibility: N/A

Pressure: 30.01 "Hg

Humidity: 83%

Dew Point: 63 °F

Location of PrešovLocation

Past Weather in Prešov — Graph

°F

Prešov Temperature Yesterday

Maximum temperature yesterday: 84 °F (at 3:00 PM)
Minimum temperature yesterday: 64 °F (at 2:30 AM)
Average temperature yesterday: 73 °F

High & Low Weather Summary for the Past Weeks

 TemperatureHumidityPressure
High90 °F (Jul 13, 3:30 PM)100% (Jul 14, 1:30 AM)30.09 "Hg (Jul 14, 1:30 AM)
Low54 °F (Jul 15, 5:30 AM)37% (Jul 23, 3:30 PM)29.68 "Hg (Jul 14, 6:30 AM)
Average69 °F70%29.99 "Hg
* Reported Jul 13 5:00 AM — Jul 28 5:30 AM, Prešov, Weather by CustomWeather, © 2016

Note: Actual official high and low records may vary slightly from our data, if they occured in-between our weather recording intervals... More about our weather records

Advertising

Prešov Weather History for the Previous 24 Hours

Scroll right to see more
 ConditionsComfort  
Time TempWeatherWind HumidityBarometerVisibility
5:30 AM
Thu, Jul 28
66 °FPassing clouds.1 mph88%29.98 "HgN/A
5:00 AM66 °FClear.3 mph88%30.01 "Hg10 mi
4:30 AM66 °FClear.2 mph88%29.98 "Hg10 mi
4:00 AM64 °FPassing clouds.No wind94%30.01 "HgN/A
3:30 AM66 °FPassing clouds.2 mph88%29.98 "HgN/A
3:00 AM66 °FClear.1 mph88%30.01 "Hg10 mi
2:30 AM66 °FClear.1 mph94%30.01 "Hg10 mi
2:00 AM66 °FClear.1 mph94%29.98 "Hg10 mi
1:30 AM66 °FClear.3 mph94%29.98 "Hg10 mi
1:00 AM66 °FClear.1 mph94%29.98 "Hg10 mi
12:30 AM68 °FPassing clouds.1 mph94%29.98 "HgN/A
12:00 AM68 °FClear.1 mph94%29.98 "Hg10 mi
11:30 PM
Wed, Jul 27
70 °FClear.2 mph88%29.98 "Hg10 mi
11:00 PM70 °FClear.2 mph88%30.01 "Hg10 mi
10:30 PM70 °FClear.2 mph88%30.01 "Hg10 mi
10:00 PM70 °FPassing clouds.3 mph88%30.01 "HgN/A
9:30 PM70 °FPassing clouds.3 mph88%30.01 "HgN/A
9:00 PM70 °FSunny.3 mph88%29.98 "Hg10 mi
8:30 PM70 °FPassing clouds.3 mph88%29.98 "HgN/A
8:00 PM73 °FSunny.6 mph78%29.98 "Hg10 mi
7:30 PM75 °FSunny.5 mph78%29.98 "Hg10 mi
7:00 PM77 °FPassing clouds.6 mph74%29.98 "HgN/A
6:30 PM77 °FSunny.7 mph74%29.98 "Hg10 mi
6:00 PM79 °FSunny.10 mph70%29.98 "Hg10 mi
5:30 PM79 °FPassing clouds.10 mph65%29.98 "HgN/A
5:00 PM79 °FScattered clouds.14 mph70%29.98 "HgN/A
4:30 PM81 °FScattered clouds.9 mph58%29.98 "HgN/A
4:00 PM81 °FScattered clouds.7 mph62%29.98 "HgN/A
3:30 PM81 °FPassing clouds.6 mph58%29.98 "HgN/A
3:00 PM84 °FPassing clouds.6 mph51%29.98 "HgN/A
2:30 PM82 °FScattered clouds.5 mph51%29.98 "HgN/A
2:00 PM82 °FScattered clouds.6 mph55%30.01 "HgN/A
1:30 PM82 °FScattered clouds.3 mph51%30.01 "HgN/A
1:00 PM81 °FScattered clouds.2 mph58%30.01 "HgN/A
12:30 PM81 °FScattered clouds.3 mph62%30.04 "HgN/A
12:00 PM81 °FScattered clouds.2 mph62%30.04 "HgN/A
11:30 AM79 °FPassing clouds.3 mph61%30.04 "HgN/A
11:00 AM77 °FPassing clouds.5 mph69%30.04 "HgN/A
10:30 AM77 °FSunny.2 mph65%30.04 "Hg10 mi
10:00 AM75 °FSunny.2 mph74%30.04 "Hg10 mi
9:30 AM73 °FPassing clouds.6 mph78%30.04 "HgN/A
9:00 AM70 °FPassing clouds.3 mph83%30.04 "HgN/A
8:30 AM68 °FPassing clouds.3 mph88%30.04 "HgN/A
8:00 AM68 °FPassing clouds.3 mph88%30.04 "HgN/A
7:30 AM68 °FPassing clouds.5 mph88%30.04 "HgN/A
7:00 AM66 °FPassing clouds.5 mph94%30.04 "HgN/A
6:30 AM66 °FPassing clouds.3 mph94%30.04 "HgN/A
6:00 AM64 °FPassing clouds.2 mph94%30.04 "HgN/A
Weather by CustomWeather, © 2016

See weather overviewHow to use our weather pages